Wind_Speed
10 11 10 9 9 10 11 11 12 11 11 8 8 8 7 8 8 9 10 8 8 10 12 11 12 13 14 13 13 11 9 8 6 6 6 5 5 5 4 3 4 3 3 4 4 5 6 8 9
10 11 10 9 5 7 10 10 12 10 7 7 7 7 6 7 6 5 8 6 6 8 10 10 10 11 11 12 12 12 12 13 12 12 12 10 10 8 6 4 4 1 1 1 3 4 5 6 6
9 10 12 10 5 6 9 10 11 10 5 4 6 6 5 5 6 5 6 5 5 4 6 7 8 8 9 10 10 10 9 10 10 10 10 9 8 7 7 5 5 3 2 2 1 1 2 3 4
7 8 10 9 5 5 8 8 10 11 8 3 2 3 3 5 6 6 5 7 6 6 4 4 5 5 6 6 7 8 9 9 8 8 8 7 6 6 4 2 3 1 0 1 2 4 5 6 7
4 5 7 9 6 4 5 5 7 8 7 6 2 1 2 2 2 4 3 5 7 7 6 5 5 4 4 4 5 5 5 6 6 6 6 5 4 4 4 2 2 2 3 4 5 7 8 10 11
5 4 5 6 5 6 5 3 4 5 5 4 3 2 2 1 2 2 4 3 3 4 5 4 5 5 5 6 5 5 5 5 5 5 5 5 5 4 3 3 2 3 5 6 6 7 9 10 11
5 3 3 4 5 6 6 4 3 4 3 4 3 2 0 1 0 1 2 2 3 2 2 3 3 4 4 4 3 3 3 4 4 4 4 3 3 2 1 0 1 0 2 4 6 8 9 11 12
6 4 1 2 4 7 5 6 5 8 4 4 6 4 4 4 2 2 2 3 1 1 2 3 4 5 6 6 6 7 7 6 4 4 5 5 6 5 3 3 3 5 5 6 6 7 7 8 9
8 6 6 5 5 7 8 7 8 8 9 6 8 7 7 6 6 5 5 5 5 4 4 4 4 5 6 5 6 7 7 6 7 7 6 5 3 3 2 1 1 1 1 1 2 1 4 6 7
10 9 10 10 10 7 10 9 10 10 10 8 9 10 10 10 8 9 7 7 8 8 7 7 7 7 8 8 8 8 9 8 6 4 4 4 5 5 5 5 5 3 2 3 5 7 5 7 9
13 12 13 13 12 10 11 10 12 10 10 13 11 9 11 12 11 11 12 10 10 10 8 8 8 8 9 10 11 10 10 10 11 10 7 8 8 8 7 6 6 6 6 6 7 10 12 14 16
15 15 15 16 14 13 12 12 12 10 12 16 15 11 12 12 13 14 14 12 12 11 10 10 11 11 12 11 12 13 14 13 12 11 10 8 6 7 8 10 11 12 13 14 16 16 18 19 22
17 17 16 17 17 15 15 15 13 12 16 16 17 17 14 14 14 14 15 14 13 13 13 14 15 15 16 15 14 15 15 15 14 13 10 9 10 11 12 14 15 15 18 21 21 21 23 25 27
17 17 17 18 18 18 18 18 17 17 17 17 17 18 18 16 15 15 15 15 14 15 15 16 16 17 18 18 18 17 18 16 15 14 14 16 14 15 14 16 17 19 21 24 25 26 26 28 28
18 18 19 20 20 20 21 18 19 20 19 18 20 20 20 18 17 16 16 16 17 17 17 18 19 19 20 19 20 19 17 18 18 17 19 19 17 18 18 20 22 23 25 24 25 25 26 28 30
19 20 19 20 20 20 22 16 22 22 23 22 21 21 21 20 20 18 17 18 19 20 21 21 21 21 22 21 21 21 20 21 22 22 23 24 24 23 24 27 29 29 29 28 27 28 28 29 33
23 23 22 23 23 23 25 20 25 26 26 25 24 23 23 21 22 22 20 21 22 22 23 24 24 24 24 23 21 22 24 26 26 25 26 28 28 28 29 31 31 32 33 36 34 35 36 37 39
27 26 25 26 27 29 29 26 28 28 28 26 25 26 26 25 25 24 23 23 23 24 26 28 28 28 28 27 26 25 26 26 28 31 31 31 30 32 32 33 32 35 37 39 38 39 40 41 43
29 29 29 28 32 34 33 30 30 32 30 27 27 28 28 28 29 27 27 27 27 26 27 28 30 30 30 30 29 30 29 29 30 31 32 33 33 35 34 34 37 36 39 41 42 44 45 45 47
32 33 30 33 36 41 39 39 37 37 34 31 30 28 27 31 31 31 32 31 31 30 29 30 31 30 30 31 31 32 33 34 35 34 33 31 33 35 36 40 41 42 44 45 46 49 48 49 51
34 35 34 37 41 44 45 43 39 34 35 34 32 30 29 29 33 34 36 36 35 34 32 32 33 33 32 31 31 33 35 37 36 36 37 36 35 35 39 40 43 44 45 48 48 50 51 54 55
38 36 38 40 45 48 45 49 38 33 30 32 29 30 30 31 33 35 37 38 39 38 35 35 35 35 34 33 33 35 36 36 37 38 37 37 36 39 40 43 44 45 47 49 50 53 54 55 57
38 37 42 44 46 50 44 47 39 29 26 25 30 31 31 34 35 37 37 40 41 38 38 37 35 36 36 35 36 37 36 37 38 37 38 37 40 41 43 44 46 49 51 54 56 58 59 60 59
40 45 46 47 51 57 42 47 47 27 23 22 28 32 34 35 35 36 38 40 40 38 38 37 37 37 37 37 38 38 39 39 38 39 40 42 43 44 45 48 50 54 58 60 61 62 63 63 64
43 42 47 55 57 59 49 51 48 33 26 27 27 31 33 34 35 35 36 38 40 39 38 38 38 37 38 39 38 38 38 38 40 42 44 44 44 47 50 52 55 57 62 64 65 65 66 66 68
47 50 53 52 50 51 51 52 44 42 32 32 33 31 32 34 37 38 37 39 38 37 37 38 38 38 38 38 38 38 38 41 43 45 45 46 47 50 52 55 58 61 64 67 66 68 72 72 73
47 48 39 45 51 55 46 37 34 35 34 31 30 31 34 35 34 38 39 38 38 38 40 40 39 38 38 38 38 39 40 43 46 47 48 49 51 53 57 58 61 64 66 66 67 72 74 74 76
54 48 49 49 54 54 48 40 36 37 36 33 34 32 32 36 36 35 40 43 41 41 42 41 39 38 39 39 40 43 46 47 47 48 51 53 55 58 60 63 64 65 66 66 71 74 75 76 78
45 44 47 49 52 54 51 43 42 41 36 34 34 31 27 26 28 33 38 40 42 42 41 41 40 40 42 44 45 47 48 50 50 51 53 56 58 61 63 65 66 66 67 69 73 75 76 78 81
49 51 51 50 51 49 51 45 45 45 38 35 38 38 37 33 32 35 38 39 40 40 42 43 44 44 46 49 49 50 51 52 52 54 58 61 63 64 65 65 66 67 69 71 74 75 78 80 84
Wind_Direction
74 69 73 91 88 89 83 76 67 64 62 75 91 98 95 102 95 99 97 101 116 120 116 113 109 106 106 110 107 106 117 141 153 163 154 152 152 147 170 159 166 202 238 256 265 268 275 283 290
77 67 73 77 64 75 83 65 67 65 67 74 77 84 88 99 111 110 113 111 103 103 112 122 125 123 122 122 121 119 119 115 118 115 115 114 121 128 125 142 129 144 156 255 285 297 299 299 298
77 71 72 75 102 80 82 66 60 65 67 57 79 81 94 99 101 95 99 108 105 100 98 100 108 115 124 134 134 130 124 123 120 121 120 123 121 122 128 136 118 124 120 120 96 289 301 305 312
95 74 76 85 90 65 62 60 55 52 64 108 111 113 92 87 93 104 100 103 110 112 107 107 107 111 109 110 114 119 125 131 136 135 139 142 137 131 141 142 148 151 253 324 322 317 318 317 318
105 77 61 55 54 58 50 47 34 52 44 63 91 157 144 147 150 122 103 92 92 90 93 101 106 106 111 116 118 128 140 141 137 133 129 125 120 125 120 95 35 9 358 345 342 338 330 329 326
141 91 52 44 25 31 37 44 6 18 42 32 61 62 75 154 178 157 142 133 105 96 91 82 85 99 111 118 125 134 134 137 148 150 148 161 173 181 183 191 241 304 319 321 330 331 331 328 329
184 142 72 23 1 347 17 16 291 296 351 330 2 8 6 117 85 142 137 152 139 160 172 188 197 191 184 179 170 168 165 167 166 166 175 180 199 202 166 142 172 53 334 336 348 342 340 341 342
217 227 235 353 342 314 339 343 323 279 280 295 308 319 316 309 326 296 219 205 251 260 246 239 249 252 249 241 236 223 220 217 221 231 235 237 233 234 240 275 341 354 5 348 354 344 350 349 347
239 264 289 301 314 306 311 321 315 285 272 270 282 287 292 298 301 280 261 256 258 259 255 254 250 250 252 251 253 253 250 251 244 239 237 248 296 338 7 28 174 183 230 260 322 356 336 346 346
246 258 276 295 302 295 293 307 303 289 272 265 263 272 276 279 285 290 276 263 260 266 265 265 256 253 252 253 252 256 252 246 250 230 193 182 189 197 199 198 194 205 256 269 294 319 328 308 311
253 261 269 279 291 287 284 293 293 292 265 259 268 267 261 268 276 278 278 272 269 263 259 270 272 276 277 274 270 257 243 233 222 219 205 192 193 193 219 234 244 244 243 264 276 285 294 298 305
254 260 267 277 282 279 281 292 295 290 269 266 272 271 268 264 263 267 270 266 263 259 263 273 276 279 276 269 260 250 247 241 241 231 220 225 227 238 245 249 263 274 279 285 289 290 294 303 300
259 265 270 275 279 278 280 285 297 276 269 267 275 278 273 270 265 265 262 261 260 262 267 272 277 282 284 278 269 263 260 249 243 249 253 240 239 252 258 263 269 278 286 293 295 298 300 303 309
262 266 270 271 272 276 279 280 289 279 282 279 271 269 272 270 265 262 259 256 254 258 264 270 278 282 281 269 266 264 268 266 265 264 267 270 270 272 284 290 296 299 301 304 303 303 307 313 314
269 273 271 270 271 273 275 282 278 285 281 274 275 273 270 263 259 258 257 257 257 259 263 270 277 278 273 274 268 273 270 269 267 260 257 264 271 282 286 292 292 294 299 299 299 302 308 311 312
274 274 269 271 278 279 280 282 279 281 281 278 271 272 268 264 260 258 257 260 263 266 265 265 268 269 268 268 271 274 270 272 273 269 273 277 278 278 286 291 293 289 291 295 298 301 303 307 308
271 274 276 278 283 282 282 279 275 277 281 279 272 272 269 262 257 257 258 260 262 263 266 268 269 267 264 265 267 270 274 275 275 274 276 275 275 279 286 288 288 288 291 295 295 297 301 305 307
271 279 282 281 280 283 284 281 277 280 278 277 275 270 265 262 260 260 263 265 267 269 269 267 267 267 266 265 266 266 268 272 277 278 277 275 276 279 284 289 293 295 299 298 296 298 300 302 304
274 278 281 281 281 282 284 280 279 277 275 273 268 265 264 262 259 261 262 263 266 268 270 269 269 269 268 268 267 265 266 263 262 265 267 269 275 280 283 288 294 295 299 297 298 298 298 299 302
273 278 281 279 281 284 285 281 270 272 277 274 270 265 260 256 258 260 264 266 266 267 270 267 267 269 269 269 270 273 274 275 272 267 263 264 273 279 285 289 292 292 294 296 297 298 299 300 302
273 277 278 279 284 288 288 279 278 271 269 269 270 267 262 259 259 259 262 265 267 269 271 270 266 266 268 270 271 272 272 273 272 267 266 273 279 281 287 288 292 292 295 296 297 299 300 299 301
273 275 278 284 287 287 281 281 278 275 269 268 268 262 256 258 262 262 263 265 266 268 271 273 267 265 267 268 269 271 272 272 269 267 269 274 278 283 286 289 293 293 294 297 299 299 298 298 299
275 276 278 280 281 281 279 280 280 275 264 264 261 262 265 265 265 266 267 265 265 269 270 269 267 265 267 270 271 272 273 270 269 268 270 275 280 282 286 291 291 293 296 300 301 300 298 296 298
275 277 278 278 279 275 278 280 276 281 274 253 254 261 264 266 266 266 265 266 267 267 267 266 263 264 267 269 270 273 271 269 266 267 271 275 279 283 288 291 292 295 297 299 301 301 299 298 298
275 279 278 275 271 273 273 272 276 283 273 268 263 264 267 269 269 268 265 262 263 263 262 262 263 265 264 266 269 268 266 265 265 268 272 277 280 285 289 293 294 295 297 298 298 300 300 298 299
271 269 269 272 276 277 272 270 277 276 275 271 268 267 270 272 272 267 268 264 260 259 260 261 262 263 263 265 265 263 261 264 266 270 275 279 284 289 292 293 294 295 295 296 298 302 301 299 300
265 259 264 267 270 273 272 274 276 277 279 269 271 270 274 268 274 268 264 266 261 257 257 259 261 262 264 264 261 261 263 266 270 274 277 281 286 288 290 292 293 293 294 297 301 300 298 299 301
257 258 260 261 268 268 270 272 274 279 275 284 287 282 275 270 267 266 262 263 261 257 256 258 260 261 261 261 260 263 265 268 271 274 279 283 286 289 291 292 293 294 296 300 300 298 298 301 302
259 259 259 259 257 261 266 270 278 274 280 285 290 287 280 270 261 257 255 258 260 260 261 261 260 258 256 257 260 263 266 267 272 277 281 284 287 288 290 291 292 294 297 298 297 298 300 301 303
257 256 254 255 259 264 268 265 271 277 283 286 288 287 285 275 265 262 263 260 258 257 255 256 257 259 260 262 265 267 267 271 275 278 282 285 286 289 290 292 294 295 295 296 297 300 301 303 303
Height
5882 5882 5882 5882 5884 5881 5879 5880 5878 5878 5877 5876 5876 5875 5876 5874 5875 5876 5875 5875 5874 5874 5874 5874 5874 5874 5875 5876 5876 5877 5878 5878 5878 5879 5880 5881 5883 5884 5884 5884 5884 5885 5884 5885 5885 5886 5886 5886 5886
5883 5883 5883 5883 5884 5882 5880 5880 5879 5879 5879 5879 5878 5877 5877 5877 5877 5876 5877 5876 5876 5876 5876 5875 5875 5875 5876 5876 5877 5878 5878 5878 5879 5879 5879 5880 5882 5882 5882 5884 5884 5884 5884 5884 5884 5884 5884 5884 5884
5884 5884 5884 5883 5884 5882 5881 5880 5879 5881 5880 5879 5879 5879 5879 5879 5878 5877 5877 5877 5877 5877 5877 5877 5878 5877 5877 5878 5879 5879 5879 5879 5879 5879 5879 5879 5880 5881 5881 5881 5881 5882 5883 5882 5882 5883 5882 5882 5881
5885 5885 5885 5884 5884 5882 5881 5880 5880 5880 5880 5880 5880 5880 5880 5880 5879 5879 5877 5877 5877 5877 5877 5878 5878 5879 5879 5880 5880 5879 5879 5879 5880 5880 5879 5879 5879 5880 5881 5881 5881 5882 5882 5882 5881 5881 5881 5881 5880
5886 5885 5884 5885 5884 5882 5882 5881 5881 5881 5880 5880 5880 5880 5880 5880 5880 5880 5878 5878 5878 5878 5878 5878 5878 5879 5879 5880 5880 5880 5880 5880 5880 5880 5880 5880 5880 5880 5881 5881 5881 5882 5882 5882 5881 5881 5881 5880 5880
5885 5885 5884 5884 5885 5883 5882 5882 5881 5881 5881 5880 5880 5880 5881 5880 5880 5880 5880 5879 5879 5879 5879 5879 5879 5879 5880 5880 5880 5880 5880 5880 5880 5879 5879 5880 5880 5880 5881 5881 5881 5881 5880 5879 5878 5878 5878 5878 5878
5884 5885 5885 5884 5883 5883 5882 5882 5881 5881 5881 5880 5881 5881 5881 5881 5881 5880 5880 5879 5880 5879 5879 5879 5879 5879 5879 5880 5880 5880 5880 5880 5881 5881 5880 5880 5880 5880 5881 5880 5880 5879 5879 5878 5877 5877 5877 5877 5877
5883 5884 5884 5884 5884 5882 5882 5881 5881 5880 5881 5881 5880 5880 5880 5880 5881 5880 5880 5880 5879 5879 5879 5879 5879 5879 5879 5879 5879 5879 5878 5878 5879 5879 5879 5879 5878 5879 5879 5879 5879 5879 5879 5878 5877 5876 5876 5875 5874
5881 5882 5882 5883 5883 5881 5880 5880 5880 5879 5879 5880 5879 5879 5879 5878 5878 5879 5879 5879 5878 5878 5878 5878 5878 5878 5878 5878 5878 5878 5878 5878 5878 5877 5878 5878 5880 5880 5880 5879 5877 5876 5876 5875 5874 5873 5873 5872 5871
5880 5881 5880 5880 5880 5880 5879 5879 5878 5878 5877 5878 5877 5877 5877 5877 5877 5876 5877 5877 5876 5876 5876 5876 5876 5877 5877 5877 5877 5876 5876 5877 5877 5878 5878 5878 5877 5876 5875 5874 5874 5874 5874 5873 5872 5870 5870 5869 5868
5878 5878 5878 5878 5878 5878 5878 5877 5876 5876 5875 5875 5875 5876 5876 5875 5875 5874 5874 5874 5874 5874 5874 5875 5875 5875 5875 5875 5875 5875 5875 5876 5875 5874 5875 5875 5875 5875 5874 5874 5874 5873 5872 5871 5870 5868 5866 5865 5864
5875 5875 5875 5875 5875 5875 5875 5874 5874 5874 5873 5872 5872 5873 5873 5873 5873 5873 5872 5872 5872 5872 5872 5872 5872 5872 5872 5872 5872 5873 5873 5873 5873 5873 5873 5873 5874 5873 5873 5872 5871 5870 5868 5868 5866 5864 5863 5861 5860
5872 5872 5872 5872 5871 5871 5871 5871 5871 5871 5870 5870 5869 5869 5870 5870 5870 5870 5870 5869 5869 5869 5870 5869 5869 5870 5869 5870 5870 5870 5870 5869 5870 5870 5870 5870 5869 5870 5869 5868 5868 5866 5865 5863 5862 5861 5860 5858 5855
5867 5868 5869 5868 5868 5868 5868 5868 5867 5867 5867 5867 5867 5866 5866 5866 5866 5866 5867 5867 5867 5867 5867 5866 5866 5866 5866 5866 5866 5866 5866 5866 5867 5867 5867 5866 5866 5866 5865 5864 5863 5862 5860 5858 5857 5855 5853 5851 5849
5863 5864 5864 5863 5864 5863 5863 5865 5863 5862 5862 5863 5863 5863 5862 5862 5862 5863 5863 5863 5864 5864 5863 5863 5863 5863 5862 5863 5863 5863 5864 5864 5864 5864 5863 5863 5862 5861 5860 5858 5858 5856 5854 5852 5850 5848 5845 5843 5841
5859 5859 5859 5859 5859 5860 5859 5862 5858 5857 5857 5858 5858 5858 5858 5858 5858 5858 5859 5859 5860 5860 5860 5859 5859 5858 5859 5859 5859 5860 5859 5860 5859 5859 5859 5858 5857 5856 5854 5853 5852 5850 5848 5846 5845 5843 5840 5837 5835
5853 5853 5854 5855 5854 5854 5853 5856 5853 5852 5852 5852 5852 5852 5852 5853 5853 5853 5854 5854 5855 5855 5855 5855 5855 5854 5854 5854 5855 5855 5855 5855 5855 5855 5854 5853 5852 5851 5849 5847 5845 5844 5842 5841 5838 5836 5833 5830 5827
5846 5848 5848 5848 5848 5847 5847 5849 5847 5847 5846 5847 5847 5846 5846 5847 5847 5848 5849 5849 5849 5849 5849 5849 5849 5849 5848 5848 5849 5849 5849 5849 5849 5849 5848 5847 5845 5844 5842 5841 5839 5837 5835 5833 5830 5828 5825 5821 5817
5841 5841 5841 5842 5839 5840 5840 5842 5841 5839 5841 5842 5841 5840 5840 5841 5840 5841 5842 5842 5843 5843 5843 5842 5842 5842 5842 5842 5843 5843 5843 5842 5841 5841 5840 5839 5838 5837 5835 5834 5832 5830 5827 5824 5821 5818 5814 5810 5805
5835 5834 5836 5834 5832 5829 5832 5832 5834 5832 5832 5834 5834 5834 5835 5833 5834 5835 5834 5835 5835 5836 5836 5836 5835 5834 5835 5835 5835 5836 5836 5835 5835 5835 5833 5832 5831 5830 5829 5827 5825 5822 5818 5815 5811 5807 5803 5799 5793
5828 5827 5827 5825 5824 5821 5820 5818 5822 5826 5825 5826 5826 5826 5826 5827 5826 5826 5827 5827 5828 5828 5828 5828 5827 5827 5827 5827 5828 5828 5827 5827 5827 5827 5826 5825 5823 5821 5820 5818 5816 5812 5808 5805 5800 5795 5791 5786 5781
5819 5819 5818 5817 5814 5812 5812 5803 5813 5817 5818 5817 5819 5817 5818 5819 5819 5818 5818 5819 5819 5819 5820 5819 5819 5819 5819 5819 5819 5819 5818 5818 5818 5817 5817 5815 5814 5812 5810 5808 5804 5801 5797 5794 5789 5785 5780 5775 5770
5812 5811 5809 5808 5806 5802 5804 5797 5800 5807 5810 5811 5809 5808 5810 5810 5810 5810 5810 5810 5810 5811 5811 5810 5810 5810 5810 5810 5810 5810 5810 5809 5809 5808 5807 5806 5804 5802 5799 5796 5793 5789 5785 5781 5776 5771 5767 5761 5755
5801 5801 5800 5797 5794 5788 5800 5792 5783 5800 5802 5803 5803 5801 5800 5800 5802 5801 5800 5800 5801 5801 5801 5801 5801 5801 5802 5801 5801 5801 5800 5799 5799 5797 5797 5795 5793 5790 5787 5784 5780 5776 5772 5767 5762 5758 5753 5748 5741
5791 5791 5787 5783 5780 5777 5787 5781 5777 5790 5793 5793 5795 5793 5792 5792 5792 5793 5792 5791 5790 5790 5791 5791 5791 5792 5792 5792 5791 5791 5790 5789 5788 5787 5786 5785 5782 5779 5775 5771 5767 5763 5759 5754 5749 5743 5737 5731 5725
5779 5779 5777 5772 5772 5770 5770 5765 5773 5775 5783 5784 5784 5786 5784 5782 5781 5781 5781 5781 5780 5781 5781 5781 5781 5782 5782 5781 5781 5780 5779 5779 5778 5776 5775 5772 5769 5766 5762 5758 5754 5750 5745 5740 5733 5727 5723 5716 5710
5767 5764 5771 5765 5762 5757 5758 5762 5763 5765 5768 5772 5775 5775 5775 5774 5772 5769 5770 5770 5771 5771 5770 5770 5771 5771 5771 5770 5770 5769 5769 5767 5766 5765 5762 5760 5757 5753 5749 5745 5741 5736 5730 5724 5717 5712 5706 5699 5692
5753 5757 5756 5755 5751 5747 5747 5750 5753 5756 5757 5761 5762 5764 5763 5762 5762 5760 5759 5759 5759 5759 5759 5760 5762 5761 5760 5760 5759 5758 5757 5755 5754 5752 5749 5747 5744 5740 5735 5730 5725 5720 5715 5708 5702 5696 5689 5682 5674
5743 5743 5742 5743 5741 5737 5737 5740 5744 5744 5749 5751 5750 5750 5751 5750 5749 5748 5748 5749 5748 5748 5749 5750 5750 5750 5749 5749 5748 5746 5745 5743 5741 5739 5736 5733 5729 5725 5720 5715 5709 5704 5698 5692 5686 5679 5672 5664 5656
5725 5727 5727 5728 5732 5733 5730 5727 5733 5734 5738 5739 5739 5738 5738 5740 5739 5739 5738 5737 5738 5738 5738 5738 5738 5738 5738 5736 5736 5734 5731 5730 5728 5725 5721 5718 5713 5709 5704 5699 5693 5687 5681 5675 5669 5662 5655 5647 5638